Miscellaneous Local Product
Issued by NWS Hastings, NE

Home | Current Version | Previous Version | Graphics & Text | Print | Product List | Glossary On
Versions: 1 2 3 4 5 6 7 8 9 10 11 12 13 14 15 16 17 18 19 20 21 22 23 24 25 26 27 28 29 30 31 32 33 34 35 36 37 38 39 40 41 42 43 44 45 46 47 48 49 50
000
AXUS43 KGID 261902
MISGRI

GID CWA HOURLY WEATHER ROUNDUP
NATIONAL WEATHER SERVICE HASTINGS NE
200 PM CDT FRI MAY 26 2017

NOTE: "FAIR" INDICATES FEW OR NO CLOUDS BELOW 12,000 FEET WITH NO
SIGNIFICANT WEATHER AND/OR OBSTRUCTIONS TO VISIBILITY.

...SOUTH CENTRAL NEBRASKA...

CITY           SKY/WX    TMP DP  RH WIND       PRES   REMARKS
GRAND ISLAND   MOSUNNY   74  50  42 N16       29.87F
HASTINGS       SUNNY     73  48  41 N9        29.88F
KEARNEY        SUNNY     72  46  40 NE9       29.89F
ORD            SUNNY     70  45  40 N10G17    29.89S
AURORA         PTSUNNY   75  44  32 N12       29.86F
LEXINGTON      SUNNY     70  49  46 CALM      29.90F
HOLDREGE       SUNNY     71  46  39 NE10G16   29.89F
HEBRON         SUNNY     79  48  33 N12       29.83S

...NEBRASKA PANHANDLE...

CITY           SKY/WX    TMP DP  RH WIND       PRES   REMARKS
CHADRON        SUNNY     64  38  38 VRB3      29.91F
ALLIANCE       SUNNY     61  40  45 CALM      29.92F
SCOTTSBLUFF    CLOUDY    62  37  39 SE7       29.92F
SIDNEY         SUNNY     62  43  49 VRB6      29.94F

...WESTERN AND NORTH CENTRAL NEBRASKA...

CITY           SKY/WX    TMP DP  RH WIND       PRES   REMARKS
VALENTINE      SUNNY     69  37  30 NW8       29.91F
AINSWORTH      SUNNY     66  44  43 N10G21    29.91F
ONEILL         SUNNY     68  39  34 N8        29.90S
BROKEN BOW     SUNNY     70  43  37 N6        29.90F
IMPERIAL       SUNNY     68  45  43 NE9       29.92F
NORTH PLATTE   SUNNY     71  43  36 VRB3      29.91F
MCCOOK         SUNNY     72  46  39 MISG      29.90F

...EASTERN NEBRASKA...

CITY           SKY/WX    TMP DP  RH WIND       PRES   REMARKS
NORFOLK        PTSUNNY   70  47  43 NW12      29.84S
SO SIOUX CITY  CLOUDY    75  52  44 NW20      29.81S
TEKAMAH        MOSUNNY   77  52  41 N15       29.81S
ALBION         CLOUDY    71  48  45 NW7       29.88S
OMAHA EPPLEY   MOSUNNY   78  55  44 N18       29.79S
OFFUTT AFB     SUNNY     77  58  51 N13       29.78F
MILLARD        SUNNY     78  57  47 N6        29.80F
LINCOLN        SUNNY     78  51  38 N13       29.83R
NEBRASKA CITY  MOSUNNY   80  51  36 NE14      29.79R
BEATRICE       SUNNY     79  55  44 N12       29.82R
FALLS CITY     MOSUNNY   80  60  50 N8        29.76R

...NORTHERN KANSAS...

CITY           SKY/WX    TMP DP  RH WIND       PRES   REMARKS
GOODLAND       SUNNY     68  48  48 VRB7      29.93F
HILL CITY      SUNNY     75  51  43 NE9       29.89F
NORTON         CLEAR     73  50  43 NE5       29.89S
PHILLIPSBURG   SUNNY     75  48  38 N6        29.88S
SMITH CENTER   PTSUNNY   75  48  38 N10       29.86
HAYS           SUNNY     75  56  51 NE13      29.87S
RUSSELL        SUNNY     76  58  53 N10       29.84F
CONCORDIA      SUNNY     77  58  51 N7        29.82F
SALINA         SUNNY     82  63  52 N10       29.81S
TOPEKA         PTSUNNY   82  66  58 VRB6      29.76R



USA.gov is the U.S. government's official web portal to all federal, state and local government web resources and services.